TimeMDT,TemperatureF,Dew PointF,Humidity,Sea Level PressureIn,VisibilityMPH,Wind Direction,Wind SpeedMPH,Gust SpeedMPH,PrecipitationIn,Events,Conditions,WindDirDegrees,DateUTC
12:53 AM,42.1,27.0,55,29.77,10.0,Calm,Calm,-,N/A,,Overcast,0,2013-03-17 06:53:00
1:53 AM,37.9,26.1,62,29.74,10.0,East,4.6,-,N/A,,Clear,100,2013-03-17 07:53:00
2:53 AM,37.9,26.1,62,29.75,10.0,Calm,Calm,-,N/A,,Clear,0,2013-03-17 08:53:00
3:53 AM,39.0,27.0,62,29.73,10.0,SSW,3.5,-,N/A,,Mostly Cloudy,200,2013-03-17 09:53:00
4:53 AM,36.0,27.0,70,29.73,10.0,WSW,9.2,-,N/A,,Clear,250,2013-03-17 10:53:00
5:53 AM,34.0,27.0,75,29.76,10.0,West,10.4,-,N/A,,Clear,260,2013-03-17 11:53:00
6:53 AM,34.0,28.0,79,29.76,10.0,West,11.5,-,N/A,,Clear,260,2013-03-17 12:53:00
7:53 AM,39.0,30.9,73,29.78,10.0,West,12.7,-,N/A,,Clear,280,2013-03-17 13:53:00
8:53 AM,45.0,30.9,58,29.73,10.0,West,16.1,-,N/A,,Clear,270,2013-03-17 14:53:00
9:53 AM,50.0,28.9,44,29.71,10.0,West,19.6,-,N/A,,Clear,270,2013-03-17 15:53:00
10:53 AM,54.0,27.0,35,29.69,10.0,WSW,21.9,-,N/A,,Clear,250,2013-03-17 16:53:00
11:53 AM,55.0,23.0,29,29.68,10.0,West,29.9,35.7,N/A,,Scattered Clouds,280,2013-03-17 17:53:00
12:53 PM,45.0,30.9,58,29.78,10.0,NW,39.1,57.5,0.00,Rain,Light Rain,310,2013-03-17 18:53:00
1:53 PM,51.1,30.0,44,29.72,10.0,WNW,25.3,34.5,0.00,,Partly Cloudy,300,2013-03-17 19:53:00
2:53 PM,57.0,25.0,29,29.63,10.0,West,23.0,33.4,N/A,,Clear,270,2013-03-17 20:53:00
3:53 PM,54.0,18.0,24,29.62,10.0,West,20.7,36.8,N/A,,Mostly Cloudy,280,2013-03-17 21:53:00
4:53 PM,60.1,7.0,12,29.60,10.0,WNW,27.6,42.6,N/A,,Clear,290,2013-03-17 22:53:00
5:53 PM,59.0,6.1,12,29.61,10.0,West,29.9,42.6,N/A,,Partly Cloudy,270,2013-03-17 23:53:00
6:53 PM,55.0,5.0,13,29.64,10.0,West,23.0,31.1,N/A,,Clear,280,2013-03-18 00:53:00
7:53 PM,51.1,-2.9,11,29.66,10.0,West,17.3,26.5,N/A,,Clear,280,2013-03-18 01:53:00
8:53 PM,46.0,-2.9,13,29.67,10.0,West,15.0,-,N/A,,Clear,270,2013-03-18 02:53:00
9:53 PM,45.0,-0.9,15,29.68,10.0,West,17.3,-,N/A,,Clear,280,2013-03-18 03:53:00
10:53 PM,43.0,3.0,19,29.71,10.0,WNW,13.8,-,N/A,,Clear,300,2013-03-18 04:53:00
11:53 PM,39.9,6.1,25,29.74,10.0,WNW,9.2,-,N/A,,Clear,300,2013-03-18 05:53:00